User: anonymous   Login
Location: Montr�al
(45.5000°N, 73.5830°W)
Time: 23:46:15
(UTC-04:00)
Language:

Cosmos 1151 Rocket - Orbit

View from above orbital plane
View from above orbital plane
View from above satellite
View from above satellite

Ground track
Ground track

The orbit data is extracted from the following two-line orbital elements,

1 11672U 80005B   16179.14878586  .00000101  00000-0  83059-5 0  9993
2 11672  82.5158  54.4658 0018127  58.5865 301.7122 14.87794143970602
Epoch (UTC): 27 June 2016 03:34:15
Eccentricity: 0.0018127
inclination: 82.5158°
perigee height: 592 km
apogee height: 617 km
right ascension of ascending node: 54.4658°
argument of perigee: 58.5865°
revolutions per day: 14.87794143
mean anomaly at epoch: 301.7122°
orbit number at epoch: 97060

The dashed part of the orbit path shows where the satellite is in the earth's shadow,  

DLR